[[{"header":{"parameterUnit":"m.s-1","parameterCategory":1,"la1":30.2991,"la2":30.254,"lo1":-89.0895,"lo2":-89.0444,"dy":0.0017,"dx":0.0017,"nx":28,"ny":28,"refTime":"2024-04-13T21:00:00:Z","depth":0,"parameterNumber":2,"parameterNumberName":"U-component_of_WINDS"},"data":[0,0,0,0,0,0,0,0,0,0,0,0,0,0,0,0,0,0,0,0,0,0,0,0,0,0,0,0,0,0,0,0,0,0,0,0,0,0,0,0,0,0,0,0,0,0,0,0,0,0,0,0,0,0,0,0,0,0,-0.2582,-0.2582,0,-0.2599,-0.26,-0.26,-0.26,-0.26,-0.26,-0.2599,-0.2618,-0.2619,-0.262,0,0,0,0,0,0,0,0,0,0,0,0,0,-0.2551,-0.2551,-0.2582,-0.2582,-0.2582,-0.2599,-0.26,-0.26,-0.26,-0.26,-0.26,-0.2599,-0.2618,-0.2619,-0.262,0,0,0,0,0,0,0,0,0,0,0,0,0,-0.2566,-0.2552,-0.2582,-0.2585,-0.2585,-0.2599,-0.26,-0.26,-0.26,-0.26,-0.26,-0.2599,-0.2618,-0.2619,-0.262,-0.2633,0,0,-0.2623,-0.2623,0,0,0,0,0,0,0,0,-0.2565,-0.2567,-0.2584,-0.2584,-0.2585,-0.2597,-0.2596,-0.2611,-0.26,-0.2594,-0.2599,-0.2599,-0.2612,-0.2613,-0.2617,-0.2634,-0.2635,-0.2623,-0.2624,-0.2624,-0.2624,0,0,0,0,0,0,0,-0.2564,-0.2566,-0.2589,-0.2584,-0.2585,-0.2586,-0.2587,-0.2598,-0.2605,-0.2595,-0.2595,-0.2597,-0.2612,-0.2616,-0.2618,-0.2635,-0.2623,-0.2624,-0.2625,-0.2625,-0.2665,-0.2666,0,0,0,0,0,0,-0.2562,-0.2565,-0.2588,-0.2589,-0.2574,-0.2586,-0.2588,-0.2594,-0.2605,-0.2606,-0.2597,-0.2597,-0.2614,-0.2616,-0.2618,-0.2636,-0.2624,-0.2625,-0.2626,-0.2665,-0.2666,-0.2666,0,0,0,0,0,0,-0.2562,-0.2564,-0.2588,-0.2578,-0.2581,-0.2587,-0.2593,-0.2594,-0.2598,-0.2606,-0.2608,-0.26,-0.2614,-0.2617,-0.263,-0.2636,-0.2626,-0.2627,-0.2664,-0.2665,-0.2666,-0.267,0,0,0,0,0,0,-0.2561,-0.2564,-0.2569,-0.2578,-0.2581,-0.2598,-0.2594,-0.2595,-0.26,-0.26,-0.261,-0.2611,-0.2614,-0.2628,-0.2631,-0.2638,-0.2627,-0.2664,-0.2665,-0.2666,-0.2669,-0.2671,-0.2672,0,0,0,0,0,-0.256,-0.2569,-0.2569,-0.2572,-0.2587,-0.2599,-0.2601,-0.2604,-0.2601,-0.2606,-0.2611,-0.2611,-0.2635,-0.2629,-0.2632,-0.264,-0.2664,-0.2665,-0.2666,-0.2669,-0.267,-0.2672,0,0,0,0,0,0,-0.256,-0.257,-0.257,-0.2582,-0.259,-0.2599,-0.2605,-0.2605,-0.2614,-0.2613,-0.2617,-0.262,-0.2633,-0.2637,-0.2631,-0.2654,-0.2649,-0.2651,-0.2651,-0.2652,-0.2654,-0.2652,-0.2628,0,0,0,0,0,-0.2562,-0.257,-0.2578,-0.2589,-0.2592,-0.2598,-0.2603,-0.2605,-0.2613,-0.2616,-0.2622,-0.263,-0.264,-0.2646,-0.2655,-0.267,-0.2673,-0.2677,-0.2678,-0.2679,-0.2681,-0.269,-0.2693,-0.2669,-0.2669,-0.2669,0,0,-0.2565,-0.2572,-0.2576,-0.2589,-0.2595,-0.2604,-0.2601,-0.261,-0.2617,-0.2618,-0.2631,-0.2636,-0.2645,-0.2659,-0.2666,-0.2663,-0.2688,-0.268,-0.2681,-0.2682,-0.2692,-0.2694,-0.2696,-0.267,-0.267,-0.267,0,0,-0.2576,-0.2581,-0.2591,-0.2597,-0.2606,-0.2611,-0.2613,-0.2622,-0.2626,-0.2639,-0.264,-0.2649,-0.2665,-0.2672,-0.2677,-0.2693,-0.2694,-0.2696,-0.2703,-0.2713,-0.2714,-0.2716,-0.2723,-0.2725,-0.2697,-0.2697,-0.2697,0,-0.2579,-0.2593,-0.2596,-0.2606,-0.2612,-0.2613,-0.2624,-0.263,-0.2642,-0.2646,-0.2643,-0.2665,-0.2671,-0.2688,-0.2692,-0.2696,-0.27,-0.2695,-0.2714,-0.2715,-0.2717,-0.2724,-0.2726,-0.2698,-0.2698,-0.2698,-0.2698,0,-0.2597,-0.2607,-0.2613,-0.2625,-0.2632,-0.2642,-0.2648,-0.2654,-0.2656,-0.2661,-0.2675,-0.2683,-0.2695,-0.2699,-0.27,-0.2716,-0.2715,-0.2713,-0.2708,-0.272,-0.2726,-0.2729,-0.2698,-0.2698,-0.2698,-0.2698,0,0,-0.2608,-0.2622,-0.2625,-0.2631,-0.2642,-0.265,-0.2661,-0.2672,-0.2678,-0.2687,-0.2697,-0.2712,-0.271,-0.2717,-0.272,-0.2728,-0.2742,-0.2725,-0.2726,-0.2729,-0.2762,-0.2764,-0.2766,-0.2742,-0.2742,-0.2743,-0.2761,0,-0.2621,-0.264,-0.2644,-0.2661,-0.2671,-0.2673,-0.2683,-0.2691,-0.2696,-0.2706,-0.2712,-0.2722,-0.2719,-0.2723,-0.2732,-0.2738,-0.2748,-0.2737,-0.2753,-0.2753,-0.2751,-0.2769,-0.2771,-0.2788,-0.2764,-0.2764,-0.2764,0,-0.2638,-0.2648,-0.2666,-0.2677,-0.2681,-0.269,-0.2702,-0.271,-0.2721,-0.2724,-0.2732,-0.2734,-0.2747,-0.2741,-0.276,-0.2752,-0.2759,-0.2763,-0.2764,-0.2766,-0.276,-0.2773,-0.2793,-0.2796,-0.2768,-0.2768,-0.2767,0,-0.2646,-0.2663,-0.2677,-0.2682,-0.2695,-0.2701,-0.2707,-0.2717,-0.2724,-0.2734,-0.2739,-0.2751,-0.2758,-0.2767,-0.2773,-0.2768,-0.2792,-0.2786,-0.2796,-0.2796,-0.2801,-0.2801,-0.2824,-0.2804,-0.2804,-0.2804,-0.2804,0,-0.2661,-0.2672,-0.2681,-0.2689,-0.2702,-0.2707,-0.272,-0.2726,-0.2735,-0.2746,-0.2748,-0.2758,-0.2765,-0.2776,-0.278,-0.2796,-0.2799,-0.2803,-0.2804,-0.2803,-0.2803,-0.2808,-0.2807,-0.2805,-0.2805,-0.2804,-0.2804,0,-0.2672,-0.2678,-0.2693,-0.2704,-0.2707,-0.2717,-0.2727,-0.2736,-0.2742,-0.2755,-0.2758,-0.2767,-0.2781,-0.2787,-0.2804,-0.2807,-0.2825,-0.2825,-0.2822,-0.2823,-0.2832,-0.2832,-0.286,-0.2865,-0.2841,-0.2841,-0.2841,0,-0.2681,-0.2689,-0.2702,-0.2709,-0.2715,-0.2726,-0.2734,-0.274,-0.2748,-0.2761,-0.2769,-0.2782,-0.2794,-0.2815,-0.2824,-0.2837,-0.2838,-0.2847,-0.284,-0.2839,-0.284,-0.284,-0.2841,-0.2849,-0.2849,-0.2849,-0.2849,0,-0.2696,-0.2699,-0.271,-0.2722,-0.2732,-0.2741,-0.2751,-0.2757,-0.2765,-0.2774,-0.2788,-0.2797,-0.2814,-0.2828,-0.2843,-0.2849,-0.2851,-0.2851,-0.2855,-0.2854,-0.2852,-0.2855,-0.2826,-0.2851,-0.2851,-0.285,-0.285,-0.285,-0.2707,-0.2716,-0.2727,-0.2739,-0.2747,-0.2757,-0.2766,-0.2774,-0.2785,-0.28,-0.2803,-0.2818,-0.283,-0.2849,-0.2857,-0.2869,-0.2867,-0.2872,-0.2873,-0.2874,-0.2875,-0.285,-0.2872,-0.2872,-0.2872,-0.2872,-0.2872,0,-0.2724,-0.2732,-0.2743,-0.2757,-0.2767,-0.2768,-0.2779,-0.2788,-0.2801,-0.2812,-0.2823,-0.284,-0.2854,-0.2865,-0.2879,-0.2888,-0.2889,-0.2891,-0.2891,-0.2893,-0.2875,-0.2872,-0.289,-0.289,-0.289,-0.289,-0.289,-0.289,-0.2734,-0.2749,-0.2754,-0.2774,-0.2781,-0.2796,-0.2803,-0.2812,-0.2821,-0.284,-0.2852,-0.2858,-0.2869,-0.2885,-0.2899,-0.2902,-0.2907,-0.291,-0.2913,-0.2896,-0.2894,-0.2892,-0.2889,-0.2911,-0.2911,-0.293,-0.293,-0.293]},{"header":{"parameterUnit":"m.s-1","parameterCategory":1,"la1":30.2991,"la2":30.254,"lo1":-89.0895,"lo2":-89.0444,"dy":0.0017,"dx":0.0017,"nx":28,"ny":28,"refTime":"2024-04-13T21:00:00:Z","depth":0,"parameterNumber":3,"parameterNumberName":"V-component_of_WINDS"},"data":[0,0,0,0,0,0,0,0,0,0,0,0,0,0,0,0,0,0,0,0,0,0,0,0,0,0,0,0,0,0,0,0,0,0,0,0,0,0,0,0,0,0,0,0,0,0,0,0,0,0,0,0,0,0,0,0,0,0,2.0258,2.0258,0,2.0266,2.0266,2.0266,2.0222,2.0221,2.0219,2.0218,2.0226,2.0228,2.0229,0,0,0,0,0,0,0,0,0,0,0,0,0,2.0202,2.0204,2.0258,2.0258,2.0258,2.0266,2.0266,2.0266,2.0222,2.0221,2.0219,2.0218,2.0226,2.0228,2.0229,0,0,0,0,0,0,0,0,0,0,0,0,0,2.022,2.0204,2.0257,2.0237,2.0235,2.0266,2.0266,2.0266,2.0222,2.0221,2.0219,2.0217,2.0225,2.0227,2.0229,2.028,0,0,2.0236,2.0237,0,0,0,0,0,0,0,0,2.0219,2.0222,2.024,2.0238,2.0236,2.0241,2.0249,2.0271,2.0223,2.0227,2.0218,2.0216,2.0233,2.0234,2.024,2.028,2.0281,2.0236,2.0237,2.0238,2.0239,0,0,0,0,0,0,0,2.0218,2.0221,2.0261,2.024,2.0238,2.0227,2.0227,2.0253,2.024,2.0227,2.0224,2.0225,2.0231,2.0238,2.024,2.0281,2.0236,2.0238,2.0239,2.024,2.0361,2.0363,0,0,0,0,0,0,2.022,2.0221,2.026,2.0261,2.0223,2.0229,2.023,2.0241,2.024,2.0238,2.0227,2.0223,2.0235,2.0237,2.024,2.0297,2.0238,2.024,2.0241,2.0359,2.0361,2.0363,0,0,0,0,0,0,2.0218,2.0223,2.026,2.024,2.0244,2.0232,2.0246,2.0242,2.0249,2.024,2.0237,2.0236,2.0234,2.0237,2.027,2.0296,2.0241,2.0243,2.0357,2.036,2.0362,2.0413,0,0,0,0,0,0,2.0217,2.0223,2.0243,2.0241,2.0245,2.0291,2.0247,2.0244,2.0253,2.0248,2.0248,2.0246,2.0233,2.0267,2.0272,2.0298,2.0245,2.0354,2.0358,2.0361,2.0409,2.0417,2.0424,0,0,0,0,0,2.0215,2.0258,2.0244,2.0249,2.0269,2.0292,2.0295,2.0279,2.0255,2.0274,2.0268,2.0246,2.0293,2.0271,2.0276,2.0303,2.0352,2.0357,2.0361,2.0405,2.0415,2.0424,0,0,0,0,0,0,2.0264,2.0257,2.0242,2.0285,2.029,2.0285,2.0309,2.029,2.0302,2.0297,2.0276,2.0276,2.0312,2.0311,2.0286,2.0351,2.0318,2.0324,2.035,2.036,2.0368,2.0366,2.0246,0,0,0,0,0,2.028,2.0299,2.0292,2.0331,2.0333,2.0321,2.033,2.0317,2.0321,2.0323,2.0319,2.0324,2.0339,2.035,2.0364,2.0409,2.0407,2.043,2.0438,2.0444,2.0449,2.047,2.048,2.0378,2.0378,2.0378,0,0,2.0313,2.0311,2.0325,2.034,2.0342,2.0362,2.0323,2.0346,2.036,2.0326,2.0356,2.0354,2.0357,2.0396,2.0413,2.0396,2.0477,2.045,2.0455,2.0456,2.0476,2.0486,2.0494,2.0381,2.038,2.038,0,0,2.0382,2.0384,2.0414,2.0417,2.042,2.0411,2.0418,2.0416,2.0413,2.0443,2.0417,2.0434,2.0461,2.0464,2.0469,2.0537,2.0516,2.0542,2.0583,2.0604,2.0612,2.0619,2.0641,2.0649,2.0547,2.0547,2.0548,0,2.0422,2.0451,2.0433,2.0457,2.0463,2.0433,2.0463,2.0467,2.0475,2.0479,2.0461,2.0493,2.0494,2.0531,2.0548,2.0554,2.056,2.0542,2.0612,2.0619,2.0625,2.0646,2.0655,2.055,2.055,2.055,2.0549,0,2.0499,2.0519,2.0544,2.0551,2.056,2.0588,2.0573,2.0585,2.057,2.0563,2.0593,2.0592,2.0604,2.0612,2.0599,2.0648,2.0637,2.0616,2.0582,2.0638,2.0657,2.0665,2.0555,2.0554,2.0553,2.0552,0,0,2.06,2.0595,2.0604,2.0606,2.0606,2.0621,2.0646,2.0658,2.0667,2.0673,2.0693,2.0716,2.0696,2.0701,2.0688,2.0707,2.0758,2.0683,2.0683,2.0695,2.0808,2.0823,2.0833,2.0745,2.0746,2.0747,2.0807,0,2.0666,2.0708,2.0691,2.0735,2.0752,2.0723,2.0744,2.0746,2.074,2.0753,2.0746,2.0762,2.0735,2.0738,2.0755,2.0748,2.078,2.0744,2.0761,2.0762,2.0759,2.0843,2.0859,2.0916,2.0815,2.0816,2.0817,0,2.0748,2.0756,2.0801,2.0796,2.0802,2.0822,2.083,2.0844,2.0845,2.0838,2.0844,2.0826,2.0849,2.0817,2.0847,2.0823,2.0829,2.0827,2.0828,2.0828,2.0792,2.0843,2.0934,2.0942,2.0829,2.0828,2.0828,0,2.0814,2.0837,2.0865,2.0868,2.0864,2.0878,2.0876,2.0876,2.0883,2.089,2.0894,2.0904,2.0909,2.0916,2.0901,2.0879,2.0933,2.09,2.0927,2.0928,2.0939,2.0938,2.103,2.0946,2.0946,2.0946,2.0946,0,2.0889,2.0917,2.0894,2.0912,2.0942,2.0922,2.0953,2.0948,2.0947,2.0963,2.0939,2.0954,2.0934,2.0947,2.0935,2.0961,2.0964,2.0958,2.0955,2.096,2.096,2.0962,2.0957,2.0948,2.0948,2.0947,2.0947,0,2.0967,2.0954,2.0983,2.0976,2.0974,2.0996,2.099,2.1005,2.0997,2.1016,2.102,2.1007,2.102,2.1006,2.1019,2.1011,2.1045,2.1037,2.1045,2.1041,2.1069,2.1066,2.1164,2.1175,2.1086,2.1087,2.1088,0,2.1015,2.1035,2.1029,2.1038,2.1038,2.1052,2.1058,2.104,2.1047,2.1049,2.1064,2.1075,2.1083,2.1107,2.1098,2.1107,2.1097,2.1131,2.1098,2.1102,2.1095,2.1093,2.1094,2.1137,2.1138,2.1139,2.114,0,2.11,2.1091,2.1102,2.1109,2.1117,2.1123,2.1126,2.1134,2.1115,2.1124,2.1138,2.1144,2.1156,2.1167,2.1174,2.1172,2.1152,2.115,2.1157,2.1161,2.1164,2.116,2.1061,2.1148,2.1147,2.1146,2.1146,2.1146,2.1163,2.1179,2.1176,2.1188,2.1188,2.1191,2.1205,2.1197,2.1208,2.1216,2.1204,2.122,2.1219,2.1225,2.1225,2.1237,2.1222,2.1232,2.1235,2.1237,2.124,2.1163,2.1238,2.1238,2.1238,2.1238,2.1238,0,2.1244,2.1241,2.1252,2.1256,2.1265,2.1246,2.1248,2.1256,2.127,2.1271,2.1279,2.1293,2.1303,2.1295,2.1303,2.1314,2.1305,2.1316,2.1314,2.1314,2.1253,2.1246,2.1323,2.1323,2.1323,2.1323,2.1323,2.1323,2.1288,2.1313,2.1304,2.1328,2.1325,2.1339,2.1342,2.1344,2.1344,2.1361,2.1369,2.1363,2.1359,2.1366,2.1375,2.1372,2.1375,2.1389,2.1383,2.1327,2.1318,2.131,2.1303,2.1391,2.1391,2.1442,2.1443,2.1443]}]]